Regional Weather Roundup
Issued by NWS

Home | Current Version | Previous Version | Text Only | Print | Product List | Glossary On
Versions: 1 2 3 4 5 6 7 8 9 10 11 12 13 14 15 16 17 18 19 20 21 22 23 24 25 26 27 28 29 30 31 32 33 34 35 36 37 38 39 40 41 42 43 44 45 46 47 48 49 50
980
ASUS43 KMKX 190411
RWRWI

WISCONSIN REGIONAL WEATHER ROUNDUP
NATIONAL WEATHER SERVICE MILWAUKEE/SULLIVAN WI
1100 PM CDT WED OCT 18 2017

NOTE: "FAIR" INDICATES FEW OR NO CLOUDS BELOW 12,000 FEET WITH NO
SIGNIFICANT WEATHER AND/OR OBSTRUCTIONS TO VISIBILITY.

WIZ001-002-006>008-014>016-023>028-190500-
NORTHWEST WISCONSIN

CITY           SKY/WX    TMP DP  RH WIND       PRES   REMARKS
SUPERIOR ARPT  CLEAR     51  19  27 SW8       29.88R
ASHLAND        CLEAR     51  20  29 W8        29.87R
HAYWARD        CLOUDY    53  18  25 W8        29.92R
SIREN          CLOUDY    50  24  36 W8        29.96R
CUMBERLAND     CLOUDY    50  23  34 W10       29.96R
RICE LAKE      CLOUDY    51  25  35 CALM      29.97R
CHETEK         CLOUDY    52  26  35 W9        29.96R
LADYSMITH      CLOUDY    53  25  33 W13       29.94R
EAU CLAIRE     CLOUDY    53  24  32 W14       29.97R
MENOMONIE      CLOUDY    53  25  33 W8        29.99R
NEW RICHMOND   CLOUDY    50  24  36 W12G17    29.99R
OSCEOLA        CLOUDY    51  28  40 W8        30.01S
$$

WIZ003>005-009-010-017-018-190500-
NORTH CENTRAL WISCONSIN

CITY           SKY/WX    TMP DP  RH WIND       PRES   REMARKS
MANITOWISH WTR CLEAR     50  23  33 W9        29.86R
ARBOR VITAE    CLEAR     56  23  28 W10G18    29.86R
WOODRUFF       CLEAR     56  23  28 W10G18    29.86R
RHINELANDER    CLOUDY    54  30  40 W13       29.88R
EAGLE RIVER    CLOUDY    55  21  26 W8G18     29.85R
LAND O LAKES   CLEAR     54  29  39 W9        29.85R
PHILLIPS       CLOUDY    53  21  29 W6        29.89S
TOMAHAWK       CLEAR     53  21  28 W10G20    29.90R
MEDFORD        CLOUDY    53  24  32 W8G18     29.92R
MERRILL        PTCLDY    56  30  36 W13G22    29.91R
$$

WIZ029-030-035-036-043>047-190500-
CENTRAL WISCONSIN

CITY           SKY/WX    TMP DP  RH WIND       PRES   REMARKS
WAUSAU         PTCLDY    57  37  47 W16G26    29.89R
MOSINEE        CLEAR     55  36  47 W18G25    29.93R
MARSHFIELD     CLEAR     56  33  42 W15G21    29.94R
STEVENS POINT  CLEAR     58  44  60 W8        29.92R
WAUPACA        CLOUDY    58  47  65 SW7       29.90S
WAUTOMA        CLOUDY    59  47  64 SW7       29.92S
WISC RAPIDS    CLOUDY    59  43  55 W9        29.94R
CAMP DOUGLAS   PTCLDY    59  41  51 W13G22    29.94R
$$

WIZ011>013-019>022-031-037>040-048>050-190500-
NORTHEAST WISCONSIN

CITY           SKY/WX    TMP DP  RH WIND       PRES   REMARKS
ANTIGO         CLEAR     55  41  58 W16G23    29.88R
SHAWANO        PTCLDY    61  47  60 SW6       29.86R
OCONTO         CLOUDY    62  46  56 SW10G17   29.84R
STURGEON BAY   CLEAR     64  46  52 SW15G24   29.84R
GREEN BAY      CLOUDY    61  47  59 SW12      29.87S
MANITOWOC      CLEAR     64  45  49 SW17G24   29.88F
APPLETON       PTCLDY    61  43  51 SW13      29.88S
CLINTONVILLE   PTCLDY    59  46  63 SW7       29.88R
OSHKOSH        CLOUDY    60  46  59 SW13      29.90S
$$

WIZ032>034-041-042-053>061-190500-
SOUTHWEST WISCONSIN

CITY           SKY/WX    TMP DP  RH WIND       PRES   REMARKS
LA CROSSE      CLEAR     60  35  39 NW9       29.98R
SPARTA         CLEAR     60  35  39 W9        29.97R
VIROQUA        CLEAR     56  46  68 W7        29.98R
BOSCOBEL       CLEAR     56  48  74 W3        29.98R
PRAIRIE DU CHI PTCLDY    56  47  70 CALM      29.99S
PLATTEVILLE    CLEAR     55  48  79 SW8       30.01R
$$

WIZ056-057-062-063-064-067-068-190500-
SOUTH CENTRAL WISCONSIN

CITY           SKY/WX    TMP DP  RH WIND       PRES   REMARKS
REEDSBURG      CLEAR     61  47  61 SW12      29.95S
BARABOO/DELLS  CLEAR     59  45  59 SW10      29.95S
LONE ROCK      CLEAR     59  48  67 SW8       29.97S
MINERAL POINT  CLEAR     57  48  72 S8        30.00S
MADISON        CLEAR     61  46  57 SW7       29.97F
MIDDLETON      CLEAR     63  45  52 SW12G18   29.97F
WATERTOWN      CLEAR     58  46  65 SW10      29.98S
MONROE         CLEAR     54  45  71 S13       30.00S
JANESVILLE     CLEAR     57  43  58 SW8       30.01S
$$

WIZ051-052-058>065-066-070>072-190500-
SOUTHEAST WISCONSIN

CITY           SKY/WX    TMP DP  RH WIND       PRES   REMARKS
MILWAUKEE      PTCLDY    62  44  51 SW16      29.99F
WAUKESHA       CLEAR     59  41  51 SW14G20   29.99F
MILWAUKEE/TIMM CLEAR     61  37  41 SW14G20   29.98F
RACINE         PTCLDY    62  44  51 SW13G21   30.01F
BURLINGTON     CLEAR     57  46  65 SW12G17   30.00F
KENOSHA        CLEAR     62  43  49 SW12G21   30.01F
FOND DU LAC    CLEAR     60  43  53 SW14      29.92F
SHEBOYGAN      CLEAR     62  45  53 SW15G22   29.92F
WEST BEND      CLEAR     61  41  48 SW12G20   29.95S
JUNEAU         CLEAR     56  45  67 S10       29.97S
$$

LSZ147-162-190500-
LAKE SUPERIOR

STATION/POSITION TIME  TEMP    WIND        PRES    WAVE
                       AIR SEA DIR/SP/G            HT/PER
                 (UTC) (F)     (DEG/KT/KT) (MB)    (FT/S)
W MID LAKE BUOY  0350   55 53              1007.6R   5/ 6
DEVILS ISLAND    0400   57     260/ 25/ 30 1010.0R
SAXON HARBOR     0340   56     220/  5/  6 1010.5R
$$

LMZ867-665-643>646-190500-
LAKE MICHIGAN

STATION/POSITION TIME  TEMP    WIND        PRES    WAVE
                       AIR SEA DIR/SP/G            HT/PER
                 (UTC) (F)     (DEG/KT/KT) (MB)    (FT/S)
S GREEN BAY BUOY 0300   62 58  210/ 19/ 25 1010.1
N MID LAKE BUOY  0350   62 58  200/ 21/ 27 1009.6R  11/ 9
NORTHPORT PIER   0340   65     220/  6/ 16 1009.5S
KEWAUNEE LAKESHO 0342   63     220/ 10/ 15 1010.5F
SHEBOYGAN LAKESH 0400   64     220/ 17/ 20 1012.7F
PORT WASHINGTON  0330   64     230/  7/ 16 1014.9F
ATWATER BUOY     0239   62 52  220/ 14/ 17 1015.3R
MILWAUKEE LAKESH 0350   63     230/ 16/ 21   N/A
S MID LAKE BUOY  0350   62 61  240/ 17/ 23 1016.4R   4/ 5
KENOSHA   LAKESH 0400   63     220/ 12/ 17 1016.3
$$

TC  - TEMPERATURE IN CELSIUS
VSB - VISIBILITY IN STATUTE MILES
WCI - WIND CHILL INDEX
HX  - HEAT INDEX





USA.gov is the U.S. government's official web portal to all federal, state and local government web resources and services.